Christchurch, New Zealand

3:40 PM NZST on September 01, 2016 (GMT +1200)
Christchurch

Weather History for 93780 - September, 2013

Change the Weather History Date:

Sunday, September 1, 2013

  Actual Average Record
Temperature  
Mean Temperature 42 °F -  
Max Temperature 53 °F 56 °F - ()
Min Temperature 30 °F 37 °F - ()
Degree Days  
Heating Degree Days 24    
Moisture  
Dew Point 39 °F    
Average Humidity 84    
Maximum Humidity 100    
Minimum Humidity 67    
Precipitation  
Precipitation 0.00 in - - ()
Sea Level Pressure  
Sea Level Pressure 30.51 in    
Wind  
Wind Speed 8 mph ()    
Max Wind Speed 16 mph    
Max Gust Speed -    
Visibility 6.2 miles    
Events      
T = Trace of Precipitation, MM = Missing Value Source: Averaged Metar Reports

Daily Weather History Graph

Daily Weather History Graph

Search for Another Location

Airport or City:

Trip Planner

Search our weather history database for the weather conditions in past years. The results will help you decide how hot, cold, wet, or windy it might be!

Date:

Astronomy

Sep. 01, 2013 Rise Set
Actual Time 6:57 AM NZST 6:03 PM NZST
Civil Twilight 6:28 AM NZST 6:31 PM NZST
Nautical Twilight 5:55 AM NZST 7:05 PM NZST
Astronomical Twilight 5:22 AM NZST 7:38 PM NZST
Moon 4:01 AM NZST 1:57 PM NZST
Length of Visible Light 12h 03m
Length of Day
11h 05m
Waning Crescent, 18% of the Moon is Illuminated
Sep 1
Waning Crescent
Sep 5
New
Sep 13
First Quarter
Sep 19
Full
Sep 27
Last Quarter

Hourly Weather History & Observations

Time (NZST) Temp. Windchill Dew Point Humidity Pressure Visibility Wind Dir Wind Speed Gust Speed Precip Events Conditions
12:00 AM 44.6 °F 38.4 °F 41.0 °F 87% 30.45 in 6.2 mi ENE 12.7 mph - N/A   Partly Cloudy
1:00 AM 44.6 °F 38.4 °F 41.0 °F 87% 30.45 in 6.2 mi ENE 12.7 mph - N/A   Partly Cloudy
2:00 AM 42.8 °F 36.6 °F 41.0 °F 93% 30.48 in 6.2 mi ENE 11.5 mph - N/A   Partly Cloudy
3:00 AM 39.2 °F 33.6 °F 37.4 °F 93% 30.48 in 6.2 mi NE 8.1 mph - N/A   Partly Cloudy
4:00 AM 39.2 °F 35.0 °F 37.4 °F 93% 30.48 in 6.2 mi NNE 5.8 mph - N/A   Partly Cloudy
5:00 AM 33.8 °F 29.6 °F 33.8 °F 100% 30.48 in 6.2 mi North 4.6 mph - N/A   Partly Cloudy
6:00 AM 32.0 °F 27.5 °F 30.2 °F 93% 30.48 in 6.2 mi North 4.6 mph - N/A   Partly Cloudy
7:00 AM 30.2 °F 26.7 °F 30.2 °F 100% 30.51 in - North 3.5 mph - N/A   Clear
8:00 AM 33.8 °F - 32.0 °F 93% 30.51 in - North 2.3 mph - N/A   Clear
9:00 AM 41.0 °F 37.1 °F 37.4 °F 87% 30.51 in - NNE 5.8 mph - N/A   Clear
10:00 AM 48.2 °F - 42.8 °F 82% 30.54 in - NE 9.2 mph - N/A   Clear
11:00 AM 50.0 °F - 42.8 °F 76% 30.54 in - ENE 16.1 mph - N/A   Clear
12:00 PM 51.8 °F - 42.8 °F 71% 30.54 in - ENE 15.0 mph - N/A   Clear
1:00 PM 53.6 °F - 42.8 °F 67% 30.51 in - ENE 12.7 mph - N/A   Clear
2:00 PM 53.6 °F - 42.8 °F 67% 30.51 in - ENE 12.7 mph - N/A   Clear
3:00 PM 51.8 °F - 42.8 °F 71% 30.51 in - ENE 11.5 mph - N/A   Clear
4:00 PM 53.6 °F - 42.8 °F 67% 30.51 in - East 12.7 mph - N/A   Clear
5:00 PM 51.8 °F - 41.0 °F 67% 30.51 in - ENE 12.7 mph - N/A   Clear
6:00 PM 48.2 °F - 41.0 °F 76% 30.54 in - ENE 11.5 mph - N/A   Clear
7:00 PM 44.6 °F 41.4 °F 41.0 °F 87% 30.54 in - ENE 5.8 mph - N/A   Clear
8:00 PM 42.8 °F 39.3 °F 37.4 °F 81% 30.54 in - ENE 5.8 mph - N/A   Clear
9:00 PM 42.8 °F 41.1 °F 39.2 °F 87% 30.54 in - ENE 3.5 mph - N/A   Clear
10:00 PM 37.4 °F - 35.6 °F 93% 30.54 in - NW 1.2 mph - N/A   Clear
11:00 PM 32.0 °F - 30.2 °F 93% 30.54 in - NW 1.2 mph - N/A   Clear